SR5NLK-1 Weather Reports


Display with metric or nautical units.
time (UTC)temp
F
wind
direction
speed
MPH
gust
MPH
rain 1hr
in
rain 24hr
in
rain mn
in
humidity
%
barometer
mb
20260510192219 57 112 4.0 5.0 0.00 0.00 0.00 43 976.5
20260510191719 57 90 1.0 3.0 0.00 0.00 0.00 43 1017.3
20260510191531 57 90 3.0 4.0 0.00 0.00 0.00 42 1005.4
20260510191220 57 67 2.0 4.0 0.00 0.00 0.00 42 1018.7
20260510190719 57 112 2.0 4.0 0.00 0.00 0.00 42 974.7
20260510190219 58 67 3.0 4.0 0.00 0.00 0.00 42 1036.6
20260510185720 58 90 2.0 4.0 0.00 0.00 0.00 41 970.9
20260510185219 58 67 2.0 4.0 0.00 0.00 0.00 41 1053.9
20260510184719 58 67 4.0 4.0 0.00 0.00 0.00 40 1013.7
20260510184218 59 45 3.0 4.0 0.00 0.00 0.00 39 965.4
20260510183720 59 67 2.0 4.0 0.00 0.00 0.00 39 994.9
20260510183219 60 67 3.0 4.0 0.00 0.00 0.00 38 1019.3
20260510182719 60 67 2.0 4.0 0.00 0.00 0.00 38 1084.7
20260510182219 60 45 3.0 4.0 0.00 0.00 0.00 37 980.8
20260510181719 61 45 2.0 5.0 0.00 0.00 0.00 36 1057.6
20260510181220 62 45 1.0 4.0 0.00 0.00 0.00 36 1019.8
20260510180919 62 45 2.0 4.0 0.00 0.00 0.00 35 1041.8
20260510180719 63 45 3.0 4.0 0.00 0.00 0.00 35 1052.2
20260510180219 63 67 4.0 4.0 0.00 0.00 0.00 34 1020.2
20260510175719 64 90 3.0 5.0 0.00 0.00 0.00 34 969.3
20260510175220 64 45 2.0 4.0 0.00 0.00 0.00 33 1012.4
20260510174720 65 67 1.0 7.0 0.00 0.00 0.00 33 975.6
20260510174220 65 45 3.0 7.0 0.00 0.00 0.00 32 962.2
20260510173720 66 112 3.0 8.0 0.00 0.00 0.00 31 959.1
20260510173619 66 67 6.0 8.0 0.00 0.00 0.00 31 980.6
20260510173220 66 45 3.0 6.0 0.00 0.00 0.00 31 1084.6
20260510172720 67 67 3.0 6.0 0.00 0.00 0.00 30 1090.9
20260510172220 68 67 7.0 7.0 0.00 0.00 0.00 28 1049.1
20260510171720 68 45 3.0 6.0 0.00 0.00 0.00 27 1004.1
20260510171220 69 45 3.0 4.0 0.00 0.00 0.00 27 1013.3
20260510170720 69 67 4.0 4.0 0.00 0.00 0.00 27 1055.4
20260510170319 69 90 3.0 4.0 0.00 0.00 0.00 27 1078.4
20260510170220 69 45 2.0 3.0 0.00 0.00 0.00 27 1103.5
20260510165720 69 45 3.0 3.0 0.00 0.00 0.00 27 974.7
20260510165220 69 67 2.0 3.0 0.00 0.00 0.00 27 959.2
20260510164720 69 45 2.0 5.0 0.00 0.00 0.00 27 1004.1
20260510164220 69 67 5.0 5.0 0.00 0.00 0.00 26 1013.5
20260510163720 69 90 3.0 6.0 0.00 0.00 0.00 26 1090.9
20260510163220 69 45 0.0 5.0 0.00 0.00 0.00 26 1049.1
20260510163019 69 45 3.0 5.0 0.00 0.00 0.00 26 1052.2
20260510162720 69 45 3.0 4.0 0.00 0.00 0.00 26 933.0
20260510162220 70 90 1.0 7.0 0.00 0.00 0.00 25 1049.1
20260510161720 71 90 4.0 4.0 0.00 0.00 0.00 25 1078.4
20260510161220 72 22 4.0 5.0 0.00 0.00 0.00 25 1026.0
20260510160720 73 135 0.0 6.0 0.00 0.00 0.00 24 1052.2
20260510160220 74 45 0.0 2.0 0.00 0.00 0.00 24 1090.9
20260510155719 75 337 1.0 2.0 0.00 0.00 0.00 24 1004.0
20260510155220 75 67 0.0 2.0 0.00 0.00 0.00 24 933.0
20260510154720 75 157 3.0 4.0 0.00 0.00 0.00 24 1014.3
20260510154220 75 202 1.0 6.0 0.00 0.00 0.00 23 959.2
20260510153720 76 90 1.0 4.0 0.00 0.00 0.00 24 1039.7
20260510153220 76 225 1.0 3.0 0.00 0.00 0.00 24 997.9
20260510152720 76 157 0.0 4.0 0.00 0.00 0.00 24 1090.9
20260510152419 75 202 2.0 4.0 0.00 0.00 0.00 24 1087.8
20260510152220 75 180 3.0 4.0 0.00 0.00 0.00 24 994.7
20260510151720 75 157 2.0 4.0 0.00 0.00 0.00 24 1036.5
20260510151220 75 180 4.0 7.0 0.00 0.00 0.00 24 968.5
20260510150720 75 315 0.0 5.0 0.00 0.00 0.00 24 1046.0
20260510150220 75 247 4.0 8.0 0.00 0.00 0.00 24 991.6
20260510145720 76 270 8.0 8.0 0.00 0.00 0.00 24 1052.2
20260510145220 75 202 4.0 6.0 0.00 0.00 0.00 25 1001.0
20260510145119 75 225 4.0 6.0 0.00 0.00 0.00 25 1012.7
20260510144720 75 225 2.0 3.0 0.00 0.00 0.00 25 1058.5
20260510144220 75 135 1.0 7.0 0.00 0.00 0.00 25 1055.3
20260510143720 73 202 3.0 3.0 0.00 0.00 0.00 25 1042.8
20260510143220 73 247 0.0 7.0 0.00 0.00 0.00 25 1017.4
20260510142720 73 292 4.0 7.0 0.00 0.00 0.00 24 968.5
20260510142220 73 270 1.0 2.0 0.00 0.00 0.00 25 1084.6
20260510141819 72 157 1.0 7.0 0.00 0.00 0.00 25 1046.0
20260510141720 72 112 0.0 9.0 0.00 0.00 0.00 25 1049.1
20260510141220 71 135 2.0 5.0 0.00 0.00 0.00 25 1049.1
20260510140720 71 0 4.0 9.0 0.00 0.00 0.00 25 923.6
20260510140220 71 315 9.0 10.0 0.00 0.00 0.00 24 1011.2
20260510135720 72 0 5.0 6.0 0.00 0.00 0.00 24 938.8
20260510135220 73 0 0.0 9.0 0.00 0.00 0.00 24 1038.4
20260510134720 75 270 6.0 12.0 0.00 0.00 0.00 24 965.4
20260510134519 75 0 3.0 9.0 0.00 0.00 0.00 25 1113.0
20260510134220 75 270 2.0 7.0 0.00 0.00 0.00 27 1042.8
20260510133720 75 157 0.0 7.0 0.00 0.00 0.00 27 1007.3
20260510133220 76 292 2.0 4.0 0.00 0.00 0.00 25 1023.0
20260510132720 76 90 0.0 6.0 0.00 0.00 0.00 27 1071.5
20260510132220 75 225 3.0 6.0 0.00 0.00 0.00 27 1063.2
20260510131720 75 202 1.0 5.0 0.00 0.00 0.00 27 1097.2
20260510131219 75 202 5.0 5.0 0.00 0.00 0.00 28 1075.2
20260510130720 74 225 1.0 5.0 0.00 0.00 0.00 28 977.8
20260510130220 74 270 3.0 13.0 0.00 0.00 0.00 28 1036.6
20260510125720 74 247 1.0 10.0 0.00 0.00 0.00 28 1075.2
20260510125220 74 315 2.0 9.0 0.00 0.00 0.00 27 1048.9
20260510124720 75 292 6.0 9.0 0.00 0.00 0.00 27 965.1
20260510124220 76 67 0.0 4.0 0.00 0.00 0.00 27 1042.8
20260510123919 76 67 2.0 6.0 0.00 0.00 0.00 27 974.7
20260510123720 76 135 1.0 6.0 0.00 0.00 0.00 27 1001.0
20260510123220 76 180 6.0 6.0 0.00 0.00 0.00 28 1049.1
20260510122720 75 180 2.0 6.0 0.00 0.00 0.00 28 1013.7
20260510122220 75 157 4.0 6.0 0.00 0.00 0.00 28 949.8
20260510121720 74 247 1.0 7.0 0.00 0.00 0.00 29 1072.1
20260510121220 74 225 5.0 8.0 0.00 0.00 0.00 29 1084.7
20260510120720 73 270 11.0 11.0 0.00 0.00 0.00 29 1087.8
20260510120619 73 292 6.0 9.0 0.00 0.00 0.00 29 1052.2
20260510120220 73 180 2.0 7.0 0.00 0.00 0.00 29 1056.4
20260510115720 73 112 2.0 3.0 0.00 0.00 0.00 30 1049.1
20260510115220 72 225 2.0 6.0 0.00 0.00 0.00 30 1027.1
20260510114720 71 180 4.0 9.0 0.00 0.00 0.00 30 1065.8
20260510114221 72 270 4.0 8.0 0.00 0.00 0.00 28 1001.0
20260510113720 72 315 3.0 8.0 0.00 0.00 0.00 29 1087.8
20260510113319 72 180 0.0 3.0 0.00 0.00 0.00 30 1001.0
20260510113220 72 270 1.0 3.0 0.00 0.00 0.00 29 1103.5
20260510112720 73 0 1.0 8.0 0.00 0.00 0.00 29 1075.2
20260510112220 73 270 2.0 8.0 0.00 0.00 0.00 28 997.9
20260510111720 73 180 1.0 7.0 0.00 0.00 0.00 30 1069.0
20260510111220 73 292 0.0 5.0 0.00 0.00 0.00 29 998.5
20260510110720 74 67 1.0 4.0 0.00 0.00 0.00 29 1078.4
20260510110220 74 0 1.0 2.0 0.00 0.00 0.00 30 1003.8
20260510110019 74 315 0.0 3.0 0.00 0.00 0.00 30 1007.3
20260510105720 73 225 0.0 4.0 0.00 0.00 0.00 30 1073.3
20260510105220 73 180 4.0 5.0 0.00 0.00 0.00 31 1039.7
20260510104720 72 112 3.0 6.0 0.00 0.00 0.00 32 1078.3
20260510104220 71 180 4.0 8.0 0.00 0.00 0.00 32 1056.8
20260510103720 71 270 3.0 5.0 0.00 0.00 0.00 33 969.4
20260510103220 70 202 4.0 13.0 0.00 0.00 0.00 33 1044.0
20260510102719 69 270 6.0 7.0 0.00 0.00 0.00 33 988.4
20260510102220 69 270 5.0 5.0 0.00 0.00 0.00 32 962.2
20260510101720 70 45 2.0 6.0 0.00 0.00 0.00 31 1045.9
20260510101228 72 22 4.0 8.0 0.00 0.00 0.00 31 10.4
20260510101220 72 22 4.0 8.0 0.00 0.00 0.00 31 1049.1
20260510100720 72 270 1.0 4.0 0.00 0.00 0.00 32 1046.0
20260510100220 72 0 0.0 5.0 0.00 0.00 0.00 32 1081.5
20260510095720 72 0 0.0 5.0 0.00 0.00 0.00 32 1033.4
20260510095419 72 270 2.0 5.0 0.00 0.00 0.00 33 997.9
20260510095220 71 157 2.0 3.0 0.00 0.00 0.00 33 1059.5
20260510094720 72 292 1.0 6.0 0.00 0.00 0.00 32 1042.8
20260510094221 72 157 2.0 9.0 0.00 0.00 0.00 33 1084.6
20260510093720 71 247 6.0 9.0 0.00 0.00 0.00 34 1039.7
20260510093220 71 135 5.0 7.0 0.00 0.00 0.00 33 1075.2
20260510092720 71 157 1.0 7.0 0.00 0.00 0.00 33 1081.5
20260510092220 71 45 4.0 8.0 0.00 0.00 0.00 32 1078.3
20260510092119 71 157 6.0 8.0 0.00 0.00 0.00 32 1100.3
20260510091721 71 247 2.0 7.0 0.00 0.00 0.00 33 1078.4
20260510091220 72 45 1.0 6.0 0.00 0.00 0.00 32 1081.5
20260510090720 72 90 2.0 4.0 0.00 0.00 0.00 33 1027.1
20260510090220 72 180 2.0 6.0 0.00 0.00 0.00 33 1050.0
20260510085720 71 157 2.0 6.0 0.00 0.00 0.00 33 1068.9
20260510085220 71 135 5.0 5.0 0.00 0.00 0.00 33 1049.1
20260510084820 71 202 4.0 6.0 0.00 0.00 0.00 33 1075.2
20260510084720 71 225 0.0 6.0 0.00 0.00 0.00 33 1068.9
20260510084220 70 270 6.0 6.0 0.00 0.00 0.00 34 1065.8
20260510083720 69 157 4.0 7.0 0.00 0.00 0.00 35 1084.7
20260510083221 69 112 6.0 7.0 0.00 0.00 0.00 34 1075.2
20260510082721 70 0 2.0 6.0 0.00 0.00 0.00 33 1075.2
20260510082220 71 22 1.0 6.0 0.00 0.00 0.00 32 1075.3
20260510081721 73 0 6.0 8.0 0.00 0.00 0.00 32 959.1
20260510081520 74 337 3.0 7.0 0.00 0.00 0.00 32 1087.8
20260510081229 74 67 4.0 4.0 0.00 0.00 0.00 32 1036.5
20260510081221 74 67 4.0 4.0 0.00 0.00 0.00 32 1036.5
20260510080721 74 45 1.0 5.0 0.00 0.00 0.00 32 1081.5
20260510080221 74 247 1.0 5.0 0.00 0.00 0.00 31 1106.6
20260510075721 75 337 2.0 8.0 0.00 0.00 0.00 30 1075.2
20260510075221 77 22 2.0 8.0 0.00 0.00 0.00 29 1081.5
20260510074721 79 22 1.0 6.0 0.00 0.00 0.00 30 1030.2
20260510074220 79 67 0.0 4.0 0.00 0.00 0.00 31 1084.6
20260510073721 79 247 2.0 5.0 0.00 0.00 0.00 30 1090.9
20260510073221 80 112 3.0 8.0 0.00 0.00 0.00 30 1065.8
20260510072721 80 90 1.0 6.0 0.00 0.00 0.00 30 1062.7
20260510072221 79 157 0.0 7.0 0.00 0.00 0.00 31 1059.6
20260510071721 78 90 1.0 6.0 0.00 0.00 0.00 31 1033.4
20260510071221 78 0 1.0 4.0 0.00 0.00 0.00 32 1081.5
20260510070920 77 90 2.0 9.0 0.00 0.00 0.00 32 1062.7
20260510070721 76 112 0.0 9.0 0.00 0.00 0.00 33 1084.7
20260510070221 75 135 2.0 9.0 0.00 0.00 0.00 33 1020.8
20260510065721 75 45 2.0 5.0 0.00 0.00 0.00 33 1072.1
20260510065221 75 45 4.0 5.0 0.00 0.00 0.00 34 1036.6
20260510064721 73 90 4.0 5.0 0.00 0.00 0.00 35 1027.1
20260510064221 73 0 1.0 6.0 0.00 0.00 0.00 34 1036.6
20260510063721 73 22 5.0 9.0 0.00 0.00 0.00 34 1030.3
20260510063620 73 337 0.0 9.0 0.00 0.00 0.00 34 1001.0
20260510063221 74 112 3.0 6.0 0.00 0.00 0.00 33 1072.1
20260510062721 75 22 5.0 6.0 0.00 0.00 0.00 34 1014.5
20260510062221 76 45 4.0 6.0 0.00 0.00 0.00 33 1072.1
20260510061721 77 45 3.0 7.0 0.00 0.00 0.00 34 1078.4
20260510061221 78 67 3.0 5.0 0.00 0.00 0.00 35 1075.2
20260510060721 77 67 0.0 4.0 0.00 0.00 0.00 36 1072.1
20260510060320 77 67 1.0 3.0 0.00 0.00 0.00 36 1036.5
20260510060221 77 45 2.0 3.0 0.00 0.00 0.00 37 1055.4
20260510055721 77 67 2.0 4.0 0.00 0.00 0.00 37 1027.1
20260510055221 77 22 2.0 3.0 0.00 0.00 0.00 37 1075.3
20260510054721 76 67 0.0 3.0 0.00 0.00 0.00 38 1087.7
20260510054221 76 45 2.0 4.0 0.00 0.00 0.00 38 997.8
20260510053721 76 45 1.0 3.0 0.00 0.00 0.00 39 1084.7
20260510053221 76 67 0.0 2.0 0.00 0.00 0.00 40 1062.7
20260510053020 75 45 1.0 2.0 0.00 0.00 0.00 40 1078.4
20260510052721 75 67 2.0 3.0 0.00 0.00 0.00 41 1075.2
20260510052221 75 67 2.0 3.0 0.00 0.00 0.00 42 1075.2
20260510051721 74 180 0.0 2.0 0.00 0.00 0.00 43 1081.5
20260510051221 73 112 2.0 3.0 0.00 0.00 0.00 45 1090.9
20260510050721 72 135 0.0 3.0 0.00 0.00 0.00 47 1090.9
20260510050221 69 135 0.0 2.0 0.00 0.00 0.00 49 1072.1
20260510045720 67 135 0.0 2.0 0.00 0.00 0.00 53 1062.7
20260510045221 66 67 0.0 1.0 0.00 0.00 0.00 56 1075.2
20260510044721 63 45 1.0 2.0 0.00 0.00 0.00 61 1078.4
20260510044221 59 67 0.0 2.0 0.00 0.00 0.00 66 1072.1
20260510043721 55 67 1.0 2.0 0.00 0.00 0.00 70 1053.2
20260510043221 53 135 0.0 2.0 0.00 0.00 0.00 68 1084.6
20260510042721 55 112 0.0 1.0 0.00 0.00 0.00 68 1027.1
20260510042420 56 45 0.0 0.0 0.00 0.00 0.00 69 1053.2
20260510042221 57 112 0.0 0.0 0.00 0.00 0.00 71 1059.5
20260510041721 56 45 0.0 0.0 0.00 0.00 0.00 79 1072.1
20260510041221 52 45 0.0 1.0 0.00 0.00 0.00 85 1059.5
20260510040721 50 67 0.0 1.0 0.00 0.00 0.00 88 1075.2
20260510040221 47 45 1.0 1.0 0.00 0.00 0.00 89 1030.3
20260510035721 43 45 0.0 1.0 0.00 0.00 0.00 87 1062.6
20260510035221 42 337 0.0 0.0 0.00 0.00 0.00 85 1065.8
20260510035120 41 315 0.0 0.0 0.00 0.00 0.00 85 1069.0
20260510034721 41 202 0.0 0.0 0.00 0.00 0.00 84 1065.8
20260510034221 41 157 0.0 0.0 0.00 0.00 0.00 84 1059.8
20260510033721 40 135 0.0 0.0 0.00 0.00 0.00 83 1062.7
20260510033221 39 135 0.0 0.0 0.00 0.00 0.00 83 1078.3
20260510032721 39 157 0.0 0.0 0.00 0.00 0.00 83 1075.2
20260510032221 39 112 0.0 0.0 0.00 0.00 0.00 83 1072.2
20260510031820 39 90 0.0 0.0 0.00 0.00 0.00 83 1078.3
20260510031721 39 90 0.0 0.0 0.00 0.00 0.00 82 1024.0
20260510031221 39 67 0.0 0.0 0.00 0.00 0.00 82 1065.8
20260510030721 39 0 0.0 0.0 0.00 0.00 0.00 82 1087.8
20260510030221 39 337 0.0 0.0 0.00 0.00 0.00 82 1075.2
20260510025721 39 270 0.0 0.0 0.00 0.00 0.00 82 1065.8
20260510025221 39 112 0.0 0.0 0.00 0.00 0.00 82 1059.5
20260510024721 39 157 0.0 0.0 0.00 0.00 0.00 82 1042.8
20260510024520 39 67 0.0 0.0 0.00 0.00 0.00 82 1042.8
20260510024221 39 112 0.0 0.0 0.00 0.00 0.00 82 1056.4
20260510023721 39 112 0.0 0.0 0.00 0.00 0.00 82 1072.1
20260510023221 39 112 0.0 0.0 0.00 0.00 0.00 82 1056.4
20260510022721 40 112 0.0 0.0 0.00 0.00 0.00 82 1039.7
20260510022221 40 112 0.0 0.0 0.00 0.00 0.00 82 1049.1
20260510021722 40 112 0.0 0.0 0.00 0.00 0.00 82 1050.0
20260510021220 40 112 0.0 0.0 0.00 0.00 0.00 82 1065.8
20260510020721 40 67 0.0 0.0 0.00 0.00 0.00 82 1059.5
20260510020221 40 135 0.0 0.0 0.00 0.00 0.00 82 1087.8
20260510015721 40 135 0.0 0.0 0.00 0.00 0.00 82 1072.1
20260510015221 40 67 0.0 0.0 0.00 0.00 0.00 82 1065.8
20260510014721 40 67 0.0 0.0 0.00 0.00 0.00 82 1069.0
20260510014221 41 112 0.0 0.0 0.00 0.00 0.00 82 1072.1
20260510013920 41 112 0.0 0.0 0.00 0.00 0.00 82 1059.5
20260510013721 41 90 0.0 0.0 0.00 0.00 0.00 82 1075.2
20260510013221 41 90 0.0 0.0 0.00 0.00 0.00 82 1078.4
20260510012722 41 135 0.0 0.0 0.00 0.00 0.00 82 1078.4
20260510012221 40 112 0.0 0.0 0.00 0.00 0.00 81 1100.3
20260510011721 40 112 0.0 0.0 0.00 0.00 0.00 81 1084.7
20260510011221 40 157 0.0 0.0 0.00 0.00 0.00 81 1020.8
20260510010721 40 157 0.0 0.0 0.00 0.00 0.00 81 1065.8
20260510010620 40 157 0.0 0.0 0.00 0.00 0.00 81 1075.2
20260510010221 40 135 0.0 0.0 0.00 0.00 0.00 81 1007.3
20260510005721 40 247 0.0 0.0 0.00 0.00 0.00 80 1081.5
20260510005221 40 180 0.0 0.0 0.00 0.00 0.00 80 1081.5
20260510004721 40 180 0.0 0.0 0.00 0.00 0.00 80 1042.9
20260510004221 40 157 0.0 0.0 0.00 0.00 0.00 80 1075.2
20260510003721 40 157 0.0 0.0 0.00 0.00 0.00 80 1081.5
20260510003320 41 225 0.0 0.0 0.00 0.00 0.00 80 1033.4
20260510003221 41 202 0.0 0.0 0.00 0.00 0.00 80 1078.4
20260510002721 41 202 0.0 0.0 0.00 0.00 0.00 80 1097.2
20260510002221 41 180 0.0 0.0 0.00 0.00 0.00 80 1058.5
20260510001730 41 157 50.0 0.0 0.00 0.00 0.00 80 994.7
20260510001722 41 157 0.0 0.0 0.00 0.00 0.00 80 994.7
20260510001221 41 157 0.0 0.0 0.00 0.00 0.00 80 1033.4
20260510000722 41 180 0.0 0.0 0.00 0.00 0.00 79 1090.9
20260510000221 41 180 0.0 0.0 0.00 0.00 0.00 79 1056.2
20260510000021 41 180 0.0 0.0 0.00 0.00 0.00 79 1084.7
20260509235721 41 180 0.0 0.0 0.00 0.00 0.00 79 1049.1
20260509235221 41 202 0.0 0.0 0.00 0.00 0.00 79 1027.1
20260509234721 41 202 0.0 0.0 0.00 0.00 0.00 79 1036.5
20260509234221 41 180 0.0 0.0 0.00 0.00 0.00 79 1078.4
20260509233721 42 180 0.0 0.0 0.00 0.00 0.00 79 1072.1
20260509233221 42 180 0.0 0.0 0.00 0.00 0.00 78 1039.7
20260509232721 42 157 0.0 0.0 0.00 0.00 0.00 78 982.2
20260509232221 42 135 0.0 0.0 0.00 0.00 0.00 78 1059.3
20260509231722 42 135 0.0 0.0 0.00 0.00 0.00 78 1084.7
20260509231221 42 135 0.0 0.0 0.00 0.00 0.00 78 1078.4
20260509230722 42 135 0.0 0.0 0.00 0.00 0.00 78 1049.1
20260509230222 42 135 0.0 0.0 0.00 0.00 0.00 78 1081.5
20260509225722 43 112 0.0 0.0 0.00 0.00 0.00 78 1010.4
20260509225421 43 135 0.0 0.0 0.00 0.00 0.00 77 1039.7
20260509225222 43 135 0.0 0.0 0.00 0.00 0.00 77 1062.6
20260509224722 43 135 0.0 0.0 0.00 0.00 0.00 77 1078.4
20260509224222 43 135 0.0 0.0 0.00 0.00 0.00 77 1075.2
20260509223722 43 112 0.0 0.0 0.00 0.00 0.00 77 1062.7
20260509223222 43 135 0.0 0.0 0.00 0.00 0.00 77 1065.8
20260509222731 43 112 0.0 0.0 0.00 0.00 0.00 77 997.9
20260509222722 43 112 0.0 0.0 0.00 0.00 0.00 77 997.9
20260509222222 43 135 0.0 0.0 0.00 0.00 0.00 77 1081.5
20260509222121 44 135 0.0 0.0 0.00 0.00 0.00 77 1078.4
20260509221722 44 157 0.0 0.0 0.00 0.00 0.00 77 1084.7
20260509221222 44 135 0.0 0.0 0.00 0.00 0.00 77 1027.1
20260509220722 44 112 0.0 0.0 0.00 0.00 0.00 77 1069.0
20260509220222 44 67 0.0 0.0 0.00 0.00 0.00 77 1049.1
20260509215722 44 67 0.0 0.0 0.00 0.00 0.00 77 1047.0
20260509215222 44 135 0.0 0.0 0.00 0.00 0.00 77 959.2
20260509214821 44 112 0.0 0.0 0.00 0.00 0.00 77 1016.6
20260509214722 44 112 0.0 0.0 0.00 0.00 0.00 77 920.4
20260509214222 44 90 0.0 0.0 0.00 0.00 0.00 77 1039.7
20260509213722 44 112 0.0 0.0 0.00 0.00 0.00 76 1097.2
20260509213222 44 45 0.0 0.0 0.00 0.00 0.00 76 988.4
20260509212722 44 112 0.0 0.0 0.00 0.00 0.00 76 1097.2
20260509212222 44 112 0.0 0.0 0.00 0.00 0.00 76 1081.5
20260509211722 44 112 0.0 0.0 0.00 0.00 0.00 75 1019.6
20260509211521 44 112 0.0 0.0 0.00 0.00 0.00 75 1058.5
20260509211222 44 90 0.0 0.0 0.00 0.00 0.00 75 1049.1
20260509210722 44 90 0.0 0.0 0.00 0.00 0.00 75 1045.9
20260509210222 44 112 0.0 0.0 0.00 0.00 0.00 74 1052.2
20260509205722 44 112 0.0 0.0 0.00 0.00 0.00 74 971.0
20260509205222 44 67 0.0 0.0 0.00 0.00 0.00 74 1075.3
20260509204722 44 112 0.0 1.0 0.00 0.00 0.00 73 1081.5
20260509204221 45 135 0.0 1.0 0.00 0.00 0.00 73 997.9
20260509203722 45 112 0.0 2.0 0.00 0.00 0.00 73 1052.2
20260509203222 45 135 0.0 0.0 0.00 0.00 0.00 73 1037.5
20260509202722 45 90 0.0 0.0 0.00 0.00 0.00 72 1042.8
20260509202222 46 112 1.0 1.0 0.00 0.00 0.00 72 1055.4
20260509201722 46 90 0.0 0.0 0.00 0.00 0.00 71 955.4
20260509201222 46 90 0.0 0.0 0.00 0.00 0.00 71 1042.8
20260509200921 46 90 0.0 1.0 0.00 0.00 0.00 71 1082.2
20260509200722 46 90 0.0 1.0 0.00 0.00 0.00 71 1052.2
20260509200222 46 45 0.0 1.0 0.00 0.00 0.00 70 1013.5
20260509195722 47 112 0.0 0.0 0.00 0.00 0.00 69 1090.9
20260509195222 47 112 0.0 0.0 0.00 0.00 0.00 70 1024.3
20260509194722 47 112 0.0 1.0 0.00 0.00 0.00 69 997.5
20260509194222 48 90 0.0 2.0 0.00 0.00 0.00 69 1087.8
20260509193722 48 112 1.0 2.0 0.00 0.00 0.00 69 1087.8
20260509193621 48 67 2.0 2.0 0.00 0.00 0.00 69 1027.0
20260509193222 48 90 0.0 3.0 0.00 0.00 0.00 68 1004.1
20260509192722 48 112 0.0 2.0 0.00 0.00 0.00 68 1057.9